RH
21 21 23 29 36 41 41 42 45 48 53 58 65 73 80 86 91 95 95 96 98 99 98 97 97 96 95 95 95 94 93 95 95 94 94 93 94 93 91 90 87 85 82 76 74 73 72 74 73 72 70 67 65 63 61 58 53 49 46 42 39 38 36 35 34 34 35 35 35 34 33 31 28 25 22 19 17 15 15 14 13 12 11 12 12 12 12 11
22 21 20 22 27 32 36 38 38 39 41 43 46 50 54 59 66 74 78 80 83 87 90 92 93 91 88 88 88 86 84 84 84 83 83 85 86 86 87 88 87 86 83 82 81 80 79 78 76 73 70 67 64 61 57 54 50 47 46 44 42 41 39 38 36 36 36 36 36 35 34 34 33 32 30 29 28 26 25 24 23 22 22 21 21 21 21 20
21 22 22 22 22 23 27 31 33 34 34 36 37 38 39 40 43 49 55 58 62 67 71 74 75 74 73 73 72 70 68 66 65 62 60 60 60 61 63 65 66 67 67 69 69 68 67 64 61 60 57 55 53 51 48 45 43 42 41 41 41 40 40 39 39 38 37 36 36 36 36 36 36 36 36 36 36 36 36 36 35 35 34 34 34 33 32 32
23 25 26 24 23 20 20 22 26 30 33 37 38 37 35 33 34 36 39 43 47 52 56 59 61 63 63 63 62 60 57 54 50 48 45 42 40 39 38 38 38 39 40 42 43 42 41 40 39 39 39 39 39 39 38 38 36 36 37 37 37 36 36 37 37 37 36 36 35 35 35 36 37 37 38 38 39 39 39 39 38 38 38 38 37 37 37 37
27 29 29 27 24 21 20 20 22 27 34 39 38 35 32 28 26 25 28 31 34 37 40 43 45 49 53 54 55 54 52 49 47 45 43 42 41 39 37 35 34 33 33 33 34 33 33 33 33 34 34 35 35 35 35 35 34 34 35 35 35 35 36 37 37 38 39 39 40 41 41 43 43 44 46 46 46 46 45 45 45 45 45 45 45 45 45 45
30 30 30 27 24 21 21 22 25 29 37 39 33 31 30 28 25 21 21 22 24 25 26 28 29 31 34 36 37 38 38 40 43 42 43 45 44 42 41 38 36 34 34 35 35 33 33 32 32 34 34 35 36 37 38 39 39 40 40 40 40 39 38 39 38 39 40 40 41 43 45 46 46 48 50 50 50 51 50 52 53 54 54 53 53 53 52 52
32 31 30 28 24 20 20 23 27 32 37 36 30 31 32 30 30 27 25 24 25 25 25 26 26 26 26 26 27 28 29 31 35 35 36 38 37 37 37 36 35 35 35 36 38 38 39 40 41 42 42 43 42 41 41 40 39 37 36 34 32 31 30 30 29 29 30 31 33 34 36 37 38 40 42 43 46 46 48 50 51 52 51 51 52 52 53 53
35 33 30 27 22 18 18 22 28 33 37 34 29 32 34 33 33 32 31 31 31 31 32 32 32 32 32 32 31 31 32 34 35 36 37 38 39 39 39 41 41 41 43 43 44 45 44 43 41 39 37 36 33 31 30 28 26 25 25 24 23 23 23 22 22 22 23 24 25 26 28 28 29 30 31 35 38 38 40 41 41 42 43 44 45 46 47 47
42 33 31 26 20 16 14 20 27 32 37 34 30 30 32 33 32 32 31 32 32 33 34 33 34 34 35 36 36 37 39 40 40 41 40 41 42 43 43 44 43 42 41 39 37 34 31 29 27 26 25 25 24 23 23 22 21 21 21 19 18 17 16 16 15 15 15 16 16 16 17 17 17 17 19 25 27 26 27 27 28 29 30 32 32 32 33 33
55 35 31 27 21 17 14 20 27 32 35 34 32 31 31 31 30 30 29 28 29 29 30 31 32 32 33 34 34 36 39 40 39 39 40 39 38 37 36 34 31 29 27 26 24 23 23 23 23 22 22 22 21 20 19 17 16 15 14 12 11 10 10 10 10 10 9 9 9 9 10 10 10 10 13 16 15 15 16 17 17 18 19 19 19 19 19 19
67 41 32 27 21 16 14 20 29 35 36 35 33 32 32 32 31 30 27 27 26 27 28 29 30 29 29 29 27 29 32 32 31 31 30 29 27 25 23 22 22 22 22 22 22 23 22 21 19 18 17 16 15 13 12 11 10 9 9 8 8 8 8 8 8 8 8 8 8 8 8 8 8 9 10 10 10 11 11 12 12 13 13 14 14 15 15 15
71 46 31 25 18 15 15 22 31 36 36 36 34 33 35 34 33 31 29 29 29 29 28 26 24 22 20 18 18 20 23 23 22 22 21 21 21 20 21 22 23 23 23 23 23 21 17 13 11 9 10 9 9 8 8 8 8 8 8 8 8 8 8 8 8 8 7 7 7 7 6 7 8 8 8 8 8 9 9 10 10 10 11 11 12 13 13 14
67 45 30 21 16 15 19 27 34 37 37 37 36 36 35 33 31 31 31 31 28 25 21 18 17 15 15 14 16 17 19 19 19 20 20 20 21 22 23 23 22 20 20 20 18 15 11 8 7 7 8 7 7 7 7 7 7 8 7 7 7 6 6 7 7 6 6 6 6 7 6 6 8 8 8 8 8 8 8 9 9 9 10 10 10 11 11 11
59 41 28 19 16 19 27 35 39 40 39 39 37 35 33 31 32 31 29 24 20 17 15 16 15 16 16 17 19 19 19 20 20 20 20 21 21 20 18 15 13 12 12 11 10 9 7 8 7 7 6 5 6 6 5 6 5 6 6 5 6 6 6 6 7 7 7 7 7 8 7 7 8 8 8 8 8 8 8 9 9 9 9 9 9 10 10 9
53 39 26 17 18 26 37 42 43 42 39 37 34 33 33 32 30 25 21 17 16 16 16 17 17 18 19 19 20 19 20 19 18 18 18 18 16 13 10 8 7 7 7 7 7 7 6 6 5 5 5 4 5 5 5 5 5 6 6 6 6 7 7 7 8 8 8 8 8 8 7 8 8 8 8 8 8 8 8 8 8 8 7 8 8 7 7 7
51 37 23 18 24 35 45 46 43 38 34 33 33 34 32 27 22 18 17 16 16 17 17 18 18 18 18 18 19 18 17 14 12 11 11 11 9 7 6 6 6 6 6 6 5 5 4 5 4 5 5 5 6 6 6 6 7 7 7 8 7 8 8 7 8 8 8 7 7 7 6 7 7 6 6 6 6 5 5 5 5 5 5 5 5 5 5 5
51 34 20 21 33 43 48 44 38 33 33 34 33 29 24 20 18 16 16 16 16 16 16 16 15 15 15 15 16 14 11 8 7 7 6 7 6 6 5 5 5 4 5 5 5 5 5 5 5 6 6 7 7 7 7 7 7 8 7 7 7 7 7 7 7 6 6 5 5 5 4 4 4 4 4 3 3 3 3 3 3 3 3 3 3 3 3 3
49 29 20 27 41 48 45 37 33 33 34 32 26 22 19 18 17 15 15 15 14 13 13 11 9 9 10 11 10 9 7 6 6 5 5 5 5 5 4 4 5 4 5 5 6 6 6 7 7 7 8 7 8 7 7 7 7 7 6 6 6 6 5 5 4 4 4 3 3 3 2 3 3 2 3 2 2 2 2 2 2 3 2 2 2 2 3 2
41 24 22 34 46 46 37 32 33 34 30 24 19 18 17 15 14 11 11 11 9 8 8 7 6 6 7 7 7 6 6 5 5 5 5 5 5 6 5 6 6 6 7 7 7 8 7 8 8 8 8 8 8 7 7 6 6 6 5 5 4 3 3 3 3 2 3 2 2 3 2 3 2 2 2 2 2 2 2 2 2 2 2 2 3 3 3 2
32 21 26 40 47 40 33 33 33 28 22 18 17 16 14 11 10 8 7 7 6 6 6 6 6 6 5 5 5 5 5 5 5 6 6 6 6 7 7 7 7 7 7 7 8 8 8 9 8 8 8 7 7 6 6 5 5 4 3 3 3 3 3 3 3 3 3 3 3 3 3 3 3 3 3 3 3 2 3 3 3 3 3 3 3 3 3 3
25 22 32 43 42 35 34 33 27 20 17 16 15 13 10 8 6 5 5 6 6 6 6 6 6 5 5 5 5 5 6 6 6 6 6 7 7 7 8 8 8 8 8 9 9 9 9 9 8 8 7 7 7 6 6 5 4 4 4 4 3 3 3 3 3 3 3 3 3 3 4 3 3 3 3 3 3 3 4 3 4 4 3 4 4 4 4 4
21 27 38 41 38 36 34 27 19 17 16 13 11 9 6 6 5 5 6 7 6 6 6 6 5 5 5 6 6 6 6 6 6 7 7 7 8 8 9 9 9 10 10 10 10 9 9 8 8 8 7 7 7 6 6 5 5 5 4 4 4 4 4 4 4 4 4 4 4 5 5 4 4 4 5 4 5 5 5 5 5 5 4 5 5 5 5 6
24 33 39 38 38 35 27 19 17 15 13 9 7 6 5 6 7 6 7 6 6 6 6 6 6 6 6 6 6 6 7 7 7 8 8 9 9 9 10 10 10 10 10 10 10 9 9 9 9 8 8 8 8 8 8 7 7 6 6 6 6 5 5 5 5 5 5 5 6 6 7 6 6 6 6 7 7 7 7 7 7 7 6 7 7 7 8 8
30 36 38 39 36 27 19 16 15 11 8 6 5 6 7 7 7 6 6 5 5 6 6 6 6 6 6 6 6 7 7 8 8 9 9 9 10 10 11 11 11 11 11 10 10 10 10 10 10 10 10 10 10 10 9 9 9 8 8 8 7 7 7 7 7 7 7 7 8 8 9 8 8 9 9 10 10 10 10 10 9 9 10 10 11 11 11 11
34 37 39 37 27 18 15 13 10 7 6 5 6 7 6 6 5 5 5 5 6 7 6 6 6 6 7 7 7 8 8 9 9 10 10 10 11 11 12 11 11 11 11 11 11 11 11 11 12 12 13 12 12 12 12 11 11 10 10 10 10 9 9 9 9 9 10 10 10 11 12 11 12 12 11 13 13 13 13 12 12 13 13 14 14 14 14 14
36 38 36 27 18 15 13 9 6 5 6 6 7 6 5 5 5 5 6 5 7 7 6 6 6 7 7 8 8 8 9 10 10 10 11 11 12 12 12 12 12 12 12 12 12 12 13 13 14 14 14 14 14 14 14 13 13 13 12 12 12 12 12 12 12 13 13 13 14 14 14 13 14 14 13 14 15 15 15 15 16 16 16 17 16 17 17 17
38 34 25 18 15 12 8 6 6 6 7 7 6 5 5 5 5 6 6 6 7 7 6 6 6 7 8 8 9 9 10 10 10 12 12 12 13 13 13 13 13 13 13 13 14 14 14 15 15 16 16 16 16 15 15 15 15 15 14 15 15 14 14 15 15 15 15 16 15 15 15 13 13 15 14 13 14 15 16 17 18 18 18 17 17 18 18 19
35 24 17 15 12 8 5 6 7 7 7 6 5 5 5 5 6 7 7 6 7 6 6 7 7 8 8 9 9 10 10 11 12 13 13 13 13 13 14 14 14 14 14 15 15 15 15 16 16 16 17 16 16 17 17 16 16 16 16 17 16 16 17 17 16 16 15 16 15 15 16 13 13 15 13 12 13 14 15 16 16 16 16 17 17 17 18 18
25 17 15 12 7 6 6 7 7 7 6 5 5 5 6 6 7 7 6 6 6 6 6 7 8 8 9 9 10 11 11 12 13 13 13 14 14 14 14 14 14 15 14 14 15 15 15 15 15 16 16 16 17 17 17 17 16 16 16 17 17 17 17 16 15 15 14 14 14 14 15 14 13 13 14 13 14 14 14 15 15 14 14 15 15 15 16 16
17 15 11 7 6 6 7 8 7 6 5 5 6 6 7 7 7 7 6 6 6 7 7 8 9 9 10 11 11 12 12 13 13 13 14 14 14 14 13 13 13 12 12 12 12 12 12 12 13 14 14 14 15 15 15 15 15 16 16 17 16 15 15 14 14 14 13 12 13 14 14 14 13 12 14 15 14 14 13 13 13 13 13 13 14 14 14 14
15 12 7 5 7 7 7 7 5 5 5 5 6 6 7 7 7 6 6 6 6 7 8 8 10 10 11 12 12 13 13 13 13 13 14 13 13 12 12 11 10 10 10 9 9 10 9 10 12 12 12 13 13 13 14 14 14 14 15 15 14 13 12 13 14 13 13 13 14 14 15 14 14 15 19 21 17 14 13 13 13 13 13 13 13 13 14 16
11 7 5 7 8 7 6 5 4 5 5 6 7 7 7 7 7 6 6 7 7 8 9 10 10 11 12 12 13 13 12 13 12 12 12 11 11 10 10 9 9 9 9 9 9 9 9 10 11 11 11 12 11 11 12 13 13 13 14 15 14 13 12 12 14 15 15 15 15 16 16 15 17 21 26 28 23 17 15 15 15 16 16 16 16 17 19 22
7 6 7 8 7 6 5 5 5 5 6 7 7 7 7 7 6 6 6 7 8 9 10 10 11 12 13 12 12 12 12 12 12 12 11 10 10 10 10 10 9 9 10 10 10 10 10 11 12 12 12 13 12 12 12 13 13 15 16 17 16 16 15 14 15 16 16 16 16 18 18 17 19 24 30 33 29 24 21 21 22 23 23 24 23 23 25 28
5 8 8 7 6 5 5 5 5 6 7 7 8 8 7 7 6 7 7 8 9 10 11 11 12 12 12 12 12 12 12 13 13 13 13 12 13 13 12 12 12 12 12 12 13 13 13 13 14 14 14 14 14 13 14 14 15 17 18 18 18 19 19 17 17 18 18 18 19 22 23 21 22 26 31 34 32 28 26 26 27 27 25 26 27 29 32 36
7 9 8 6 5 5 5 5 6 7 8 8 8 8 7 7 7 7 8 9 10 10 11 12 12 12 12 12 13 13 13 14 15 15 15 15 16 16 15 16 16 16 16 17 17 17 17 17 17 18 18 18 17 17 18 18 18 20 21 22 22 22 22 22 22 23 23 23 23 25 26 25 26 29 29 29 29 28 28 28 28 27 27 29 32 34 38 41
9 8 7 5 5 5 6 6 7 8 8 8 8 7 7 7 8 9 9 10 10 11 12 12 12 13 13 13 14 14 15 15 16 16 16 16 17 17 17 17 17 18 18 18 19 20 21 21 21 23 24 23 23 24 25 25 25 27 28 30 30 28 28 29 28 28 29 28 25 27 28 26 29 32 30 29 30 31 31 31 30 31 33 35 37 39 41 44
9 8 6 5 5 5 6 6 7 8 8 9 8 7 8 8 9 10 10 10 11 11 12 13 13 14 14 15 16 16 16 17 17 18 18 18 19 19 19 20 19 19 19 20 20 20 21 21 21 22 23 23 23 24 26 28 29 32 35 38 38 36 36 36 34 33 34 31 26 28 32 32 32 34 33 34 37 37 37 37 36 38 41 42 43 44 46 49
9 8 6 5 5 6 6 7 8 9 9 8 8 8 8 9 10 10 10 11 12 12 13 14 15 16 16 17 18 18 20 20 21 21 21 22 22 23 22 23 24 23 23 24 24 25 25 24 25 24 24 24 23 22 23 24 26 28 32 38 40 38 39 39 37 37 38 33 26 25 30 36 39 38 39 40 41 42 44 44 44 47 52 54 53 54 55 55
9 7 5 5 6 6 7 7 8 9 9 8 8 8 9 10 10 10 11 12 13 14 15 16 17 18 19 20 21 21 22 23 23 24 24 24 25 26 25 26 27 27 27 28 28 29 30 29 31 31 31 31 30 29 28 27 27 26 27 30 32 31 32 33 32 35 38 33 28 23 22 31 42 47 50 50 49 52 55 52 52 56 62 64 65 66 66 65
8 6 5 5 6 7 8 8 9 9 9 8 8 9 10 10 11 12 13 14 15 16 17 18 19 20 21 22 23 23 24 25 26 27 27 28 29 29 29 30 30 30 31 31 31 32 32 33 34 34 35 38 39 38 37 35 34 33 32 32 32 30 30 29 27 29 32 29 28 24 18 25 44 56 57 55 55 59 58 54 56 63 67 69 71 73 75 77
6 6 6 6 7 8 9 9 9 10 9 8 9 10 10 11 12 14 15 16 17 18 19 20 21 22 23 24 26 26 27 29 29 30 31 32 34 34 34 35 35 35 35 36 36 36 36 37 36 35 37 41 42 42 43 42 41 40 40 40 40 39 38 36 31 28 28 26 26 26 20 21 37 50 50 49 50 52 51 51 55 61 64 65 68 72 77 81
7 6 7 8 8 9 10 10 10 10 9 9 10 11 12 13 14 16 17 19 19 20 22 23 24 25 25 26 29 29 30 33 34 34 35 37 38 38 39 40 41 41 41 41 41 40 40 42 40 37 39 42 43 43 45 45 44 45 46 46 46 45 45 45 40 33 30 26 25 26 22 20 28 36 37 39 42 44 46 49 53 57 60 61 64 69 77 83
7 7 8 9 9 10 10 10 10 9 9 10 11 12 14 15 16 18 19 20 21 22 24 25 26 27 28 29 31 32 34 36 37 37 39 42 43 42 43 46 45 45 45 45 46 45 44 46 44 41 41 43 45 45 45 46 46 46 49 49 49 49 50 49 44 38 34 30 30 29 24 22 27 29 31 35 38 42 46 50 54 57 59 60 62 68 78 85
7 9 9 10 10 10 10 11 10 10 10 11 13 14 16 17 19 20 21 23 24 25 26 27 28 29 30 31 33 35 37 39 40 40 42 45 47 46 47 49 49 49 48 48 49 49 49 52 51 46 43 44 47 48 48 48 47 47 50 51 51 53 53 51 47 44 40 36 37 33 26 26 28 29 32 36 40 45 50 54 57 59 60 62 64 70 79 85
9 9 10 11 11 11 11 11 10 10 11 13 15 16 18 20 21 22 23 24 26 27 28 29 30 32 33 33 35 37 39 43 44 43 44 47 50 50 50 52 53 53 52 51 52 52 50 54 57 52 49 50 52 53 53 52 50 50 51 51 52 55 55 52 51 50 46 41 38 32 29 30 29 31 36 40 45 50 55 58 61 63 65 67 70 75 81 84
10 10 11 11 11 12 11 11 10 11 12 15 17 19 20 22 23 24 25 26 28 29 30 32 33 35 36 37 39 39 40 45 48 47 47 48 51 52 52 54 56 56 55 54 56 55 52 54 59 56 53 54 57 58 58 55 53 53 51 50 53 55 54 55 55 53 51 44 35 31 34 33 29 34 42 45 50 56 60 64 67 70 74 76 79 82 83 83
11 11 12 12 12 12 11 11 11 12 14 17 19 21 22 24 25 26 27 28 30 32 33 34 35 37 38 39 42 42 43 47 49 49 49 50 53 54 53 55 57 58 58 57 59 60 54 54 59 57 53 55 57 60 60 58 56 54 51 51 54 54 54 56 56 54 52 46 36 32 37 35 31 39 47 50 54 60 65 70 75 78 82 83 85 84 82 82
12 12 13 12 12 12 11 12 12 14 16 19 21 24 25 26 28 28 29 31 33 35 35 35 37 39 38 39 42 43 45 48 49 50 51 52 55 55 55 56 57 60 61 59 63 64 56 54 60 58 54 56 59 60 60 60 58 54 51 52 54 53 54 56 55 55 53 47 39 37 38 35 37 44 49 52 59 65 69 74 79 82 84 85 84 82 81 82
13 13 13 13 13 12 12 12 14 16 19 21 23 26 26 28 29 30 32 33 35 36 35 34 37 39 38 41 42 42 45 49 48 49 51 52 55 57 56 56 59 62 62 62 65 67 60 56 61 59 54 56 61 61 59 60 58 52 50 54 54 52 54 55 55 54 51 45 40 40 38 36 42 49 50 54 63 69 72 75 78 82 84 84 82 79 80 82
14 14 14 14 13 13 12 13 15 17 20 23 26 27 28 30 31 33 34 35 36 37 36 35 37 37 38 41 42 43 46 47 48 50 51 51 55 57 55 55 60 63 63 65 68 69 66 62 63 62 55 54 61 62 60 60 56 49 49 53 53 53 55 56 55 53 50 45 41 40 39 40 46 52 53 59 67 71 74 77 77 80 84 83 79 77 79 82
15 15 14 14 13 13 14 15 17 19 23 26 27 29 31 32 33 34 35 36 36 37 37 36 36 36 37 39 41 44 44 43 47 51 50 50 54 55 54 56 62 63 65 68 68 70 72 69 68 67 58 54 60 63 60 58 53 49 50 51 52 56 57 55 54 52 48 44 41 41 42 44 49 53 57 63 70 75 77 78 78 80 82 81 77 77 80 82
15 14 15 14 14 14 15 17 19 22 26 28 29 31 33 33 35 36 36 36 36 36 36 36 35 33 34 37 40 41 39 41 47 48 47 49 52 53 54 56 60 63 66 68 68 70 74 74 73 71 63 58 62 64 61 57 51 48 50 51 55 58 56 53 52 50 47 45 43 42 44 47 51 56 61 67 74 80 80 79 81 83 81 79 78 79 82 84
Wind_Speed
9 10 10 11 11 10 10 9 8 8 8 8 8 7 6 5 3 4 6 7 9 11 15 18 18 17 15 14 12 12 12 11 11 10 9 9 9 10 11 11 12 13 14 15 15 16 16 16 16 16 16 16 16 16 16 16 16 17 17 18 19 19 20 20 21 21 21 22 23 23 24 25 25 26 27 27 28 28 29 30 30 31 32 32 33 34 34 35
9 9 9 9 10 10 10 9 8 8 7 7 7 7 7 7 6 5 3 3 2 2 3 7 9 10 9 8 7 7 7 7 7 7 6 6 7 8 9 9 10 12 13 13 14 15 16 16 16 16 16 16 16 17 18 18 18 19 19 20 21 22 23 23 24 24 24 25 26 26 27 27 27 28 29 29 30 30 30 31 31 32 33 33 34 35 36 36
9 9 8 8 8 9 9 8 8 7 6 6 6 6 6 5 5 4 4 5 5 4 3 1 1 2 2 2 3 3 4 5 5 5 5 6 7 8 9 10 11 12 13 14 15 16 16 17 17 17 18 18 19 19 20 20 20 21 21 22 23 24 25 25 26 26 27 27 27 28 28 29 29 30 31 31 31 31 32 32 33 33 34 35 36 37 37 38
8 8 9 9 8 7 6 6 6 5 5 4 4 5 4 4 3 2 2 2 2 2 2 2 1 2 2 2 3 4 5 6 6 6 7 8 9 10 12 12 13 14 15 16 17 18 18 19 19 19 19 20 20 21 21 22 22 22 23 24 25 26 26 27 27 28 28 28 29 29 30 30 30 31 31 32 32 32 33 34 34 35 36 36 37 38 39 39
9 9 9 8 7 6 5 4 4 4 3 3 4 4 4 3 2 1 1 2 2 3 2 3 3 3 4 5 6 7 7 7 7 8 9 10 11 12 13 14 14 15 16 17 18 18 19 19 19 19 20 20 21 21 22 23 23 24 24 25 26 26 27 28 28 28 29 29 29 29 30 30 31 31 31 32 32 33 34 34 35 36 37 37 38 39 39 40
10 10 9 7 6 5 4 3 3 3 3 3 4 4 4 4 4 3 1 1 1 1 2 2 3 4 5 6 7 8 8 8 9 10 10 11 12 13 13 14 15 15 16 16 18 19 19 19 19 19 20 21 22 22 23 24 25 25 25 25 26 27 27 27 28 28 28 28 29 29 29 30 30 30 31 32 32 33 34 34 35 36 36 37 38 38 39 40
11 10 9 7 5 3 3 3 3 2 2 3 4 4 3 4 4 4 3 2 2 1 1 0 2 3 4 5 6 7 8 8 10 10 10 11 12 13 13 14 15 15 16 17 17 18 19 20 20 21 21 22 22 23 23 24 24 24 24 24 24 25 25 25 26 26 27 27 28 28 29 29 30 30 31 32 32 33 34 35 36 36 37 37 38 39 39 40
11 10 9 7 5 2 2 2 3 2 2 3 4 3 2 3 3 2 2 2 1 1 2 2 3 3 4 5 6 7 8 9 11 11 11 12 13 13 14 15 16 16 17 18 19 19 20 20 21 20 20 20 20 21 21 22 22 22 22 22 23 23 24 24 25 26 26 27 28 29 29 30 30 31 31 32 32 33 34 35 36 37 38 38 39 39 40 41
12 10 9 7 5 3 1 1 1 2 2 2 2 2 1 1 1 1 2 2 2 3 3 4 5 6 7 7 8 9 9 11 12 12 13 14 15 15 15 16 17 17 18 18 18 18 18 18 18 18 18 18 18 19 19 20 21 21 22 23 23 24 25 25 26 27 27 28 28 29 30 30 31 32 32 32 33 34 35 36 37 37 38 39 40 40 41 42
13 11 9 8 7 4 2 1 0 0 1 1 1 0 1 1 2 3 4 5 5 6 6 7 7 8 9 10 11 11 11 13 14 14 15 16 16 16 16 15 15 16 16 15 15 16 16 16 17 18 18 18 19 20 21 22 22 23 24 24 25 25 25 26 27 27 28 29 29 30 31 32 32 33 33 33 34 35 36 37 37 38 39 39 40 41 42 42
13 12 10 8 7 4 2 1 0 1 1 1 1 1 2 3 4 5 5 6 7 8 9 10 10 11 11 11 12 12 12 13 14 14 14 14 14 14 13 13 13 13 14 14 14 15 16 17 18 19 20 20 20 21 22 22 23 24 24 25 25 26 26 27 28 28 29 30 31 32 33 33 33 34 34 35 36 36 37 37 38 39 39 40 40 41 42 42
12 12 10 8 6 4 2 1 0 1 1 2 2 3 3 4 5 6 7 8 9 9 10 11 11 12 12 12 12 11 11 11 12 11 11 10 11 11 12 12 12 13 14 15 15 16 17 18 19 19 19 20 20 21 22 22 23 24 25 26 26 27 28 28 29 30 31 32 32 33 34 34 33 34 35 36 36 37 37 38 38 39 39 40 41 41 41 42
11 12 10 8 6 4 2 1 2 2 2 2 3 4 5 6 7 8 9 9 10 10 10 10 10 10 10 10 10 10 9 10 11 11 11 11 11 11 12 13 14 15 15 16 16 17 18 18 19 19 20 20 21 22 23 24 25 25 26 27 28 28 29 29 30 31 31 32 32 33 34 33 32 34 35 35 36 36 37 38 38 39 39 40 40 41 41 42
11 12 11 8 5 3 2 2 3 3 3 3 4 5 6 7 8 9 9 9 9 9 9 8 8 8 8 8 8 9 9 9 10 11 12 12 12 13 14 15 15 16 16 16 16 17 18 19 20 21 22 23 23 24 25 26 26 27 27 28 28 30 30 30 31 31 31 32 32 33 34 33 32 33 35 35 36 36 37 38 38 39 39 40 40 41 42 42
11 12 11 8 4 3 3 3 3 3 3 3 4 6 7 8 8 9 9 8 8 8 8 8 8 9 8 8 8 9 9 10 11 12 12 12 13 13 14 15 15 15 16 17 17 19 20 21 22 22 23 24 24 25 26 27 27 27 28 29 29 30 30 30 31 31 32 33 33 34 34 33 33 35 36 36 37 38 39 39 40 40 41 41 42 42 43 43
12 12 10 6 3 3 3 3 3 3 4 4 6 7 7 8 8 8 8 8 7 7 8 8 8 9 8 8 8 9 10 11 11 11 11 12 12 13 14 15 16 17 18 19 20 21 22 22 22 23 23 24 24 25 26 27 27 27 28 29 29 29 30 31 31 32 33 33 33 35 35 35 36 37 38 38 39 40 40 40 41 41 41 41 41 40 40 40
11 11 9 5 3 3 3 3 3 4 5 6 7 7 7 7 7 7 7 7 7 7 7 8 8 9 9 9 9 9 9 9 10 11 11 12 13 15 16 17 17 18 19 20 21 21 22 22 23 23 23 24 25 25 26 27 27 27 28 29 29 30 30 31 31 32 33 34 34 35 35 36 37 38 37 38 38 38 37 38 37 37 36 36 35 35 34 34
11 10 7 4 3 4 3 4 4 5 6 7 7 7 6 6 6 6 7 7 7 7 8 8 8 8 8 8 7 7 8 9 11 12 13 14 15 17 17 18 18 19 19 20 21 21 22 22 22 23 23 24 24 25 26 26 27 27 28 28 29 29 30 31 32 32 33 34 34 34 33 33 34 34 34 33 33 32 32 32 31 30 30 29 29 29 29 29
10 8 5 3 4 4 4 4 5 6 7 6 6 5 5 6 6 7 7 7 8 8 7 7 6 6 6 6 6 8 9 11 13 13 14 15 16 17 18 19 19 20 20 20 20 21 21 21 21 22 23 23 24 24 25 26 26 27 27 28 28 29 29 30 31 30 31 30 30 29 28 27 28 29 28 27 27 26 26 26 25 24 25 24 24 25 25 25
9 6 4 3 4 5 5 5 6 7 6 5 5 5 5 6 7 7 7 7 6 5 5 5 5 6 7 8 9 10 12 13 14 15 15 16 17 18 19 20 21 21 21 21 20 20 20 20 21 21 22 22 23 23 24 24 25 25 26 26 27 27 27 27 27 27 27 26 25 25 24 23 24 25 25 24 23 23 23 23 22 23 23 22 23 23 23 23
8 5 3 4 5 5 5 7 7 5 5 4 4 5 6 7 7 6 5 4 4 5 5 6 6 7 9 11 11 12 14 15 16 17 18 18 19 19 20 20 20 20 20 20 20 20 20 20 20 21 21 22 22 22 23 23 23 24 25 25 25 25 25 25 24 24 24 23 22 23 23 21 21 23 23 23 22 22 22 22 22 22 22 22 23 23 22 23
7 4 4 5 5 6 7 7 5 4 4 4 5 6 6 6 5 3 3 3 5 6 7 9 9 9 11 12 12 14 16 16 18 19 19 20 20 20 20 19 19 19 19 19 19 20 20 20 20 20 20 21 21 21 22 22 22 23 23 24 23 23 23 23 22 22 22 22 22 23 23 20 21 23 22 22 22 22 22 23 23 22 22 23 23 23 23 24
5 4 4 5 6 7 6 5 4 3 4 4 5 5 4 3 3 3 3 4 6 7 9 11 10 11 13 13 15 16 17 18 19 20 19 19 19 19 18 18 18 18 18 18 19 19 20 20 20 20 20 20 21 21 21 22 22 22 22 22 22 22 22 21 21 21 21 22 22 24 23 18 21 24 23 23 22 22 24 23 22 23 24 24 24 24 25 26
4 4 5 6 7 6 4 3 3 4 4 4 4 3 3 4 4 4 4 5 7 8 11 12 11 13 14 15 17 17 18 20 20 20 19 19 18 18 17 17 17 17 18 19 19 20 20 20 20 20 21 21 21 21 21 21 21 22 22 22 21 21 21 21 21 21 21 22 23 26 24 17 19 25 25 25 23 22 24 23 22 24 25 25 24 24 26 26
3 4 5 7 6 4 3 3 3 4 3 3 3 3 4 4 4 6 6 7 9 10 13 13 13 14 15 17 18 19 20 20 19 19 19 18 17 17 17 17 18 18 18 19 20 20 20 20 20 21 21 21 21 21 21 21 21 21 21 21 21 20 21 21 21 22 21 22 23 28 27 18 17 25 27 26 23 22 24 23 23 26 26 26 25 25 27 27
3 5 6 5 3 2 3 3 3 2 2 3 4 3 4 4 5 7 7 10 11 12 14 14 14 16 16 18 19 20 20 19 19 19 17 17 17 17 17 17 18 18 19 20 20 20 20 20 20 20 21 21 21 20 20 20 20 20 21 21 21 21 21 21 22 22 22 23 23 27 30 20 13 20 26 27 24 21 23 24 25 28 28 27 26 26 28 29
4 5 4 2 2 2 3 2 2 2 3 3 3 3 4 5 6 8 10 12 13 14 15 15 16 17 18 19 20 20 19 19 18 18 17 17 17 17 17 17 18 18 19 20 20 20 20 20 20 20 20 20 20 20 20 20 20 20 20 21 21 21 22 22 22 23 23 23 23 25 28 22 12 13 21 25 26 24 24 26 26 28 30 30 29 29 30 31
4 3 2 1 2 2 1 2 3 4 3 2 2 4 5 6 8 10 12 13 14 15 15 15 17 18 19 20 20 20 20 19 18 17 17 17 16 17 17 17 18 18 19 19 19 20 20 20 20 19 19 19 19 19 20 20 20 20 20 20 21 22 22 23 22 23 22 21 21 23 26 22 13 10 15 21 26 27 26 28 29 30 32 32 32 31 31 32
3 1 1 2 2 0 2 4 4 3 2 2 3 5 6 7 10 12 13 14 15 15 15 16 17 18 19 20 20 20 20 19 18 17 17 17 17 17 17 17 18 18 18 19 19 19 19 19 18 18 18 17 18 18 18 18 19 19 20 20 21 21 21 22 21 22 21 19 21 22 25 24 14 8 15 21 24 27 28 30 32 33 34 34 34 33 32 33
2 1 2 1 1 3 4 4 3 2 2 2 3 6 7 9 12 13 14 15 16 15 15 17 18 19 19 20 20 20 19 18 18 17 17 17 17 17 17 17 17 17 17 17 17 17 16 16 16 15 15 15 15 16 16 17 17 18 19 19 20 21 21 21 20 21 21 19 20 22 24 26 17 10 17 23 24 27 29 30 32 34 36 36 35 35 35 36
2 2 1 1 3 4 4 4 3 2 2 3 4 6 9 11 13 14 14 15 15 15 16 17 18 19 20 20 20 19 18 18 18 17 17 16 16 16 16 16 16 16 16 16 16 15 15 15 14 14 14 14 14 15 15 16 16 17 18 20 21 22 22 21 20 22 22 21 22 23 23 23 18 15 20 24 25 27 29 30 32 33 34 35 35 36 37 38
2 1 2 4 5 5 4 3 2 2 2 3 5 8 11 12 13 14 14 14 15 16 16 18 18 19 20 20 19 19 18 18 17 17 16 15 15 15 16 16 16 16 15 16 16 15 16 15 15 16 16 16 16 16 16 16 17 18 19 21 23 24 25 24 24 24 24 24 24 24 24 21 19 20 23 23 23 26 29 32 33 33 33 34 35 36 37 40
2 3 5 5 5 4 3 3 2 2 2 4 7 10 12 13 14 14 14 14 15 16 17 18 19 19 20 19 19 18 18 18 17 16 16 15 16 16 16 16 16 16 15 15 15 16 16 16 17 17 17 18 18 18 18 18 19 20 21 22 24 26 28 27 28 27 26 26 25 25 25 23 21 22 22 21 23 28 32 34 35 34 34 36 38 39 41 44
4 6 6 5 5 3 3 2 2 2 3 6 9 11 12 13 13 13 13 14 15 16 17 18 19 19 19 19 18 18 17 17 17 17 16 16 17 16 16 16 16 16 16 16 16 16 17 18 18 18 18 19 20 20 21 21 21 21 22 24 24 26 29 30 30 31 30 27 24 24 24 22 22 20 20 23 26 30 33 34 35 36 38 40 42 44 45 45
6 6 6 4 3 3 2 2 2 3 5 7 10 11 12 13 13 12 13 14 15 16 17 18 18 18 18 18 18 18 17 17 17 17 17 17 17 17 17 17 17 17 17 17 17 17 18 19 19 19 20 20 21 21 22 23 23 23 23 24 25 26 29 31 31 32 33 29 24 22 21 19 20 18 20 28 30 31 34 36 37 39 41 42 43 43 43 43
7 6 5 3 3 2 2 2 3 4 6 9 10 11 11 12 12 12 13 14 15 16 17 17 17 18 18 18 18 18 17 18 18 18 18 18 18 18 18 18 19 19 19 19 19 19 20 21 21 21 21 22 22 22 23 24 24 24 24 25 26 27 28 32 33 33 34 33 27 23 20 18 20 20 22 27 29 30 34 36 37 38 38 40 40 40 41 41
7 6 4 3 2 2 1 2 3 5 8 10 10 11 11 11 11 12 13 14 15 16 16 16 17 17 17 17 18 18 18 18 19 19 19 19 19 20 20 20 20 20 21 21 21 21 22 23 23 23 24 24 23 23 24 25 25 25 26 26 28 29 29 32 35 35 36 37 31 25 22 20 22 25 25 25 27 30 34 35 35 36 37 39 41 42 42 43
6 4 3 2 1 1 1 2 4 6 9 10 10 10 10 10 11 12 13 14 15 15 16 16 16 17 17 17 18 19 19 20 20 21 21 21 21 22 22 22 22 22 23 23 23 23 23 23 24 25 25 26 26 26 26 26 26 27 27 28 30 32 32 33 36 37 39 41 37 31 27 22 18 24 28 28 30 33 36 37 37 37 39 41 43 44 46 46
5 3 2 1 1 1 2 3 5 7 9 9 9 9 9 10 11 12 13 14 14 15 15 15 16 16 17 18 19 20 21 21 22 23 23 23 23 24 24 24 24 24 25 25 25 25 25 25 25 26 26 26 27 27 28 28 28 29 29 29 31 33 35 35 36 38 40 43 43 39 34 23 13 21 29 31 33 36 39 40 40 40 42 44 46 47 48 49
4 3 2 1 1 1 3 4 5 8 9 9 8 8 9 10 12 12 13 13 13 14 14 15 16 17 18 19 19 21 22 22 23 24 24 25 25 26 26 26 26 27 26 27 26 26 27 26 26 27 26 27 28 28 29 30 30 31 30 31 32 34 36 37 37 37 40 44 45 44 39 23 14 23 31 34 37 39 42 43 42 43 44 46 48 49 50 50
4 3 2 1 0 1 3 4 6 8 8 8 8 8 9 10 11 12 13 13 13 14 14 15 16 17 18 19 20 21 22 23 24 25 25 26 27 27 28 28 28 28 28 28 28 28 28 28 28 28 27 28 29 29 30 30 31 31 31 32 33 35 37 39 40 39 40 44 43 46 42 25 19 27 33 36 40 42 44 45 44 44 46 47 49 50 51 51
3 2 2 1 1 2 3 5 7 8 7 7 7 8 9 10 11 12 12 12 13 14 14 15 17 17 18 20 20 22 23 23 24 25 26 27 28 28 29 29 29 30 30 30 30 30 30 29 29 29 28 29 30 31 31 31 31 31 32 33 34 36 37 39 42 41 43 45 42 47 45 29 27 33 37 39 43 44 46 46 45 46 47 49 51 51 52 53
3 2 1 0 2 3 3 5 7 7 7 7 7 8 9 10 11 11 11 12 13 14 15 16 17 18 19 20 21 22 23 24 25 26 27 27 28 29 30 30 30 30 31 31 31 31 31 32 32 31 30 30 31 32 33 33 33 32 33 34 35 37 38 39 41 42 45 45 42 47 48 38 35 38 40 41 45 46 47 47 47 48 49 51 53 53 54 54
3 2 0 1 3 3 4 5 7 6 6 6 7 8 10 10 11 11 11 12 13 14 15 16 17 19 20 21 22 23 24 25 26 27 28 28 29 30 30 30 31 31 32 32 32 33 33 33 34 35 34 33 33 34 35 35 35 34 34 36 37 38 39 41 41 43 46 45 43 48 50 45 41 41 41 44 48 48 48 48 48 50 51 52 54 54 55 56
3 2 0 1 3 4 5 6 6 5 5 6 7 9 9 10 10 10 11 12 13 14 16 17 18 19 21 22 23 25 26 26 27 28 29 29 30 30 31 31 31 32 33 33 33 34 34 33 34 36 37 37 37 37 38 37 37 36 36 37 38 39 40 41 42 44 46 47 49 49 50 48 44 41 42 45 48 48 48 48 49 50 51 53 54 55 56 56
3 1 1 2 4 5 6 5 5 5 5 5 7 8 9 9 10 11 12 13 14 15 17 18 20 21 23 24 24 26 27 27 28 29 30 30 31 31 32 32 32 33 33 34 34 35 35 34 34 35 36 37 38 39 40 40 39 38 38 38 39 39 41 42 44 45 46 51 52 48 48 51 46 41 42 46 47 48 48 48 48 49 51 54 55 56 57 57
3 1 2 4 5 6 6 5 5 5 5 6 7 8 9 9 10 11 13 14 15 17 18 20 22 23 25 26 26 27 28 29 29 30 31 31 32 32 33 33 34 34 35 36 36 37 37 36 35 36 37 37 38 39 40 41 41 40 40 39 39 40 42 44 46 46 47 53 53 47 48 53 48 43 45 48 48 49 49 49 49 50 52 54 56 57 58 58
2 2 3 5 6 7 6 5 5 5 6 7 8 8 9 10 10 12 14 15 17 19 20 23 24 25 27 28 28 29 30 30 31 31 32 32 33 33 34 34 35 35 36 37 37 38 40 39 38 38 38 37 39 40 42 43 43 43 42 40 40 42 44 46 47 46 47 53 53 49 49 51 47 45 48 49 49 50 51 51 51 52 53 55 57 59 59 58
3 3 5 6 7 7 7 6 6 6 7 8 8 9 10 11 12 14 16 17 19 21 23 25 26 27 29 30 30 31 31 31 32 33 33 33 33 34 35 35 35 36 37 38 38 39 42 42 41 42 41 38 39 42 43 44 44 44 42 40 41 43 45 47 47 47 49 52 52 50 51 49 46 47 50 50 50 52 53 53 53 53 54 57 58 59 59 59
3 4 6 7 8 8 7 6 7 8 8 9 10 10 11 13 14 16 18 19 21 23 26 28 29 30 31 31 32 33 33 33 34 34 34 35 34 35 37 37 36 37 38 39 39 40 43 44 44 45 45 41 41 43 44 45 46 45 42 41 43 44 45 47 47 48 50 52 51 50 51 49 46 49 52 51 51 53 54 54 54 54 56 58 60 60 60 60
4 5 6 7 8 8 8 7 8 9 10 10 11 12 13 15 16 18 20 22 24 26 28 30 31 32 33 33 34 34 34 35 35 35 36 36 35 36 38 38 38 39 39 40 41 41 43 46 46 48 49 46 44 46 47 47 48 47 45 44 44 45 46 47 48 49 50 51 51 51 51 50 50 51 52 52 53 55 55 56 55 55 57 60 61 61 60 61
6 6 6 7 8 9 9 9 10 11 11 12 13 14 15 17 19 21 23 24 27 29 30 32 34 35 35 35 35 35 36 37 36 36 37 38 37 38 39 39 40 40 40 41 43 43 44 47 48 50 52 50 48 50 50 51 51 49 48 47 46 46 48 49 49 49 49 50 52 52 52 52 53 54 54 55 55 56 57 57 57 57 59 61 62 62 62 62
Wind_Direction
127 123 122 123 120 115 108 106 105 108 108 109 112 113 115 116 143 204 223 221 222 223 225 230 234 235 232 227 226 227 222 217 219 227 233 238 246 249 250 253 256 259 260 259 258 258 257 257 256 256 256 257 259 261 263 264 265 267 269 270 271 272 271 270 270 269 268 269 269 270 270 270 271 270 270 270 270 270 269 270 270 270 271 271 272 272 272 272
117 116 117 117 115 115 117 118 116 115 112 110 111 110 108 103 101 101 96 109 134 174 216 232 232 229 229 224 224 231 224 212 212 217 222 231 241 248 249 248 250 254 257 258 258 260 260 259 260 261 262 263 264 264 264 264 265 266 268 270 271 272 272 272 273 273 272 272 272 272 272 272 272 272 272 272 271 271 271 271 271 271 271 272 272 273 273 274
105 105 102 97 98 107 118 126 126 122 118 115 112 109 106 101 99 99 90 82 85 92 96 116 202 201 203 210 215 232 235 231 229 227 232 239 243 247 249 249 249 251 254 256 257 258 259 260 261 263 264 265 266 266 266 267 267 267 269 270 272 272 273 274 275 275 275 275 275 274 274 274 274 274 274 274 274 274 274 274 274 274 274 274 274 274 275 275
90 89 84 80 80 90 105 117 119 120 116 104 96 91 91 89 90 101 115 106 99 112 130 154 177 186 195 208 221 235 239 240 243 244 245 247 249 250 251 252 252 253 254 255 257 258 259 260 261 262 263 265 267 268 270 271 271 271 271 271 272 273 274 275 275 276 276 276 276 277 277 277 277 276 276 276 276 276 275 275 276 276 276 276 276 276 276 277
75 73 71 70 75 82 92 102 110 117 110 91 82 78 71 60 59 78 141 167 191 205 212 223 231 233 233 232 237 242 246 252 255 253 253 252 253 254 255 256 255 254 254 256 258 259 260 261 263 265 267 269 271 272 274 275 275 275 274 275 275 275 276 277 278 279 280 280 279 279 279 279 278 278 278 277 277 276 276 276 276 276 276 276 276 276 277 277
64 61 60 61 69 83 98 108 115 120 107 92 87 86 80 66 60 59 80 122 166 201 209 227 244 247 247 246 248 248 250 259 261 259 259 258 258 258 259 259 258 258 258 260 262 265 267 269 270 272 274 275 276 277 277 277 277 278 278 278 278 278 279 280 281 281 282 282 282 281 281 280 280 280 279 279 279 279 278 278 277 277 277 277 277 277 277 277
54 51 49 48 53 71 102 117 118 119 112 104 100 101 97 82 70 64 64 67 64 43 9 272 264 260 256 258 260 260 260 265 265 266 265 262 262 263 264 265 266 268 269 269 270 272 274 277 278 278 278 278 278 278 278 278 278 279 280 280 280 280 281 281 282 282 282 282 282 282 281 281 281 281 281 280 280 280 280 279 279 279 279 279 279 279 279 279
43 41 38 35 35 48 101 125 130 128 113 102 110 119 111 90 73 57 49 39 22 347 328 308 291 280 275 274 273 273 272 272 271 273 272 270 271 271 272 274 276 277 278 278 278 278 279 280 280 281 281 280 280 280 280 280 280 282 283 283 283 284 284 284 283 283 283 282 282 282 282 282 281 280 280 280 279 279 278 278 278 278 278 279 279 279 279 280
33 31 29 24 18 19 61 111 132 137 118 103 114 131 123 75 16 336 323 318 308 299 296 290 288 285 284 285 282 282 281 277 277 278 278 278 278 278 278 279 280 280 280 281 281 281 281 282 283 283 283 284 284 283 283 284 285 286 286 286 286 286 286 285 285 285 284 283 283 282 281 281 280 280 280 279 279 278 278 278 278 278 278 279 279 280 280 281
23 20 19 16 9 8 31 75 53 141 107 101 126 202 282 309 308 308 310 309 305 301 299 293 290 286 285 286 284 284 283 281 282 283 283 283 283 283 283 283 282 282 281 282 283 284 285 286 287 286 286 287 287 286 287 288 288 288 287 287 287 287 286 286 285 285 284 283 282 281 281 281 281 281 281 280 279 279 279 279 279 279 279 280 280 281 281 282
14 10 10 9 5 3 20 85 7 310 342 349 293 281 289 296 296 301 303 303 303 304 304 301 298 296 294 291 289 288 286 284 285 284 283 284 284 285 286 285 285 285 285 287 288 289 289 289 289 288 288 289 288 288 288 289 289 288 288 288 287 287 286 286 285 284 283 282 282 282 282 282 283 283 282 282 282 281 281 281 281 281 281 281 281 282 282 281
5 0 2 2 2 6 15 36 312 295 307 303 287 284 288 292 296 301 302 300 300 300 300 299 298 298 298 298 297 297 295 293 292 291 290 288 287 288 289 289 290 290 290 290 289 289 290 290 290 290 290 290 290 290 290 289 288 288 288 287 287 287 286 285 284 283 282 283 283 283 283 283 284 283 283 283 283 282 282 282 282 282 282 282 282 282 282 282
355 353 356 358 3 10 10 356 319 299 299 298 288 290 293 298 303 305 304 304 303 302 300 298 297 297 298 299 300 301 303 301 301 302 302 300 299 298 297 298 298 296 294 292 292 293 294 295 295 295 295 295 294 293 292 291 290 290 289 289 288 287 286 286 285 285 286 286 286 285 285 286 285 284 284 283 283 283 283 283 283 283 283 283 283 283 284 284
348 349 352 356 5 13 2 333 313 299 295 293 291 295 300 305 309 308 308 308 307 307 307 307 306 306 305 305 303 303 306 305 304 305 303 303 302 301 301 301 300 298 297 295 296 297 298 297 298 298 298 297 297 296 295 293 293 293 292 292 291 290 290 290 290 290 290 289 289 288 288 289 288 287 286 286 286 286 286 285 286 286 285 285 286 286 286 286
346 347 347 353 5 4 345 315 300 292 292 295 299 305 308 310 311 311 310 309 310 311 311 313 312 311 313 311 307 307 309 308 306 303 301 300 300 302 303 303 302 301 300 300 299 299 298 297 297 297 297 297 296 296 295 294 294 294 293 293 292 292 293 293 293 293 292 291 291 291 291 292 291 289 289 289 289 288 288 288 288 287 288 288 288 288 288 288
344 343 342 350 358 340 319 300 293 296 300 306 312 314 314 315 313 312 312 311 313 314 314 315 313 313 313 308 305 305 307 308 308 306 303 303 305 307 307 306 304 303 301 300 299 298 298 297 297 297 297 297 296 295 294 294 294 293 292 292 293 293 293 293 292 292 291 292 292 291 292 293 292 291 290 290 290 289 290 290 289 289 290 289 289 289 289 289
340 338 337 341 336 317 301 295 300 307 314 319 320 319 317 316 315 315 316 317 318 317 316 315 312 311 308 305 304 307 311 317 319 316 312 309 309 308 307 304 302 301 300 299 298 298 297 297 297 297 296 295 294 294 293 293 293 292 292 292 292 292 292 292 291 290 291 291 291 291 292 293 292 292 292 291 291 292 292 292 291 292 292 292 291 291 290 289
334 333 329 325 315 302 296 303 310 317 324 326 323 321 320 319 319 319 320 322 321 318 316 315 315 314 312 311 312 316 322 324 321 316 311 308 305 305 303 301 299 298 297 297 296 296 296 296 296 295 294 293 293 293 293 293 293 292 292 292 292 291 291 291 290 291 291 291 292 293 294 294 294 293 294 294 294 295 295 294 295 295 293 293 293 292 291 291
330 328 317 309 302 296 301 311 319 326 329 328 327 328 324 320 322 323 324 323 322 324 326 330 335 337 336 332 325 322 319 317 316 312 309 307 305 304 302 301 299 297 297 296 296 295 295 295 295 294 293 293 293 293 293 293 293 293 293 292 292 292 291 292 292 293 293 293 295 296 297 298 297 296 296 297 298 298 296 297 297 296 295 295 294 292 292 292
326 323 307 297 291 296 310 320 327 331 332 335 337 333 325 324 326 326 325 326 333 345 352 357 357 354 348 336 324 319 314 314 315 313 312 310 308 305 304 303 302 300 300 299 298 297 296 296 295 294 295 295 294 294 294 294 294 294 294 294 294 294 294 295 295 295 296 297 299 299 300 302 300 298 299 300 300 299 299 299 298 297 297 295 292 292 293 293
322 316 303 291 289 303 319 326 331 334 340 343 338 328 324 325 325 326 336 356 13 12 2 351 341 340 339 331 324 320 317 317 316 315 314 312 310 308 307 305 303 302 301 301 300 298 297 297 296 296 296 296 296 296 296 296 296 296 296 296 296 296 297 297 297 297 298 299 301 299 300 304 301 300 301 301 301 301 300 298 297 297 296 292 291 294 295 293
316 310 299 289 295 314 325 330 335 342 349 342 332 327 327 331 337 356 25 37 21 7 354 344 333 329 329 327 326 323 321 320 319 317 315 313 310 308 307 305 303 303 302 301 299 298 298 298 298 297 297 297 298 298 298 298 298 297 297 297 297 298 298 298 298 299 300 300 301 299 301 306 303 301 302 300 300 301 298 296 297 296 292 291 294 296 295 293
307 301 295 293 306 321 330 337 345 350 343 334 334 338 349 10 40 45 34 14 1 353 347 344 335 329 328 327 327 325 323 322 319 317 314 312 309 308 307 305 304 303 301 300 299 299 300 300 300 300 300 300 301 300 300 299 299 298 298 298 298 299 298 299 299 301 303 303 302 300 302 310 307 304 302 298 301 301 297 298 297 294 292 293 295 296 294 293
294 294 296 303 314 326 340 352 352 342 334 336 352 23 47 54 46 23 8 356 349 343 341 340 334 330 329 328 328 326 324 323 320 318 316 313 311 310 309 307 305 304 303 302 301 302 303 303 304 304 304 304 303 302 301 301 301 300 300 300 300 301 301 303 304 306 307 307 306 302 303 315 312 304 300 300 304 303 299 300 297 293 295 296 296 295 293 292
288 297 303 308 319 336 354 355 345 338 341 10 53 69 55 41 23 9 0 351 346 341 338 336 333 331 330 330 330 328 327 325 322 319 318 316 315 314 311 309 308 307 306 305 305 306 306 307 307 308 308 307 306 305 305 305 304 303 303 303 304 306 307 308 308 310 310 310 310 306 307 319 314 303 301 302 305 304 301 301 298 297 298 297 297 295 294 294
293 302 304 309 329 356 353 348 347 357 42 75 75 60 33 20 9 2 355 348 345 341 337 335 334 334 333 332 332 331 328 325 323 322 320 319 317 315 313 311 310 310 308 307 308 309 309 310 311 311 310 308 308 308 307 306 305 306 307 307 309 309 309 310 310 311 310 310 312 308 309 322 324 307 306 306 306 304 299 298 297 298 298 297 295 294 294 295
300 305 307 319 347 346 345 357 40 76 91 88 64 33 16 10 3 358 351 345 343 339 336 336 336 335 336 335 334 332 329 328 328 326 323 321 319 316 314 312 310 310 309 310 311 311 312 313 312 311 310 309 309 308 306 306 306 307 308 310 310 310 309 309 308 308 308 310 313 309 310 324 344 322 308 305 305 304 300 298 297 295 294 293 293 293 294 294
304 303 311 341 333 330 3 78 99 103 99 79 43 22 12 7 1 353 347 342 341 339 337 337 337 337 338 336 336 334 333 333 331 328 325 322 320 317 315 313 312 312 312 313 313 313 314 314 313 312 311 310 308 307 307 307 308 309 309 310 308 307 306 306 306 307 308 313 314 309 311 322 347 337 306 299 302 304 303 301 297 292 290 290 291 293 293 292
290 271 296 314 311 3 106 110 108 105 88 58 35 21 10 2 355 348 344 341 341 341 340 339 340 340 339 339 338 338 337 335 332 329 327 324 322 320 318 317 317 317 317 317 317 317 317 316 316 315 312 311 309 308 309 309 310 310 309 308 305 305 305 306 308 308 312 318 315 312 314 320 336 334 302 299 302 301 298 294 292 292 291 291 291 292 293 293
237 249 288 286 169 129 123 118 108 100 74 47 31 16 3 355 351 345 343 342 341 342 342 341 342 342 342 342 342 341 339 337 335 332 330 328 326 325 324 325 325 325 325 325 324 323 323 322 321 319 316 315 313 311 311 311 310 310 309 308 308 310 309 310 313 312 316 321 316 315 318 319 327 324 305 303 300 294 290 288 288 289 291 292 294 296 297 299
225 260 252 165 139 129 125 118 103 86 57 33 18 6 356 351 347 344 344 343 341 343 343 343 345 344 345 345 344 344 342 340 338 337 335 333 333 333 334 336 336 337 337 335 334 332 332 331 329 328 326 323 321 317 315 315 314 314 315 315 316 316 314 315 316 314 317 320 319 319 320 320 325 321 310 305 296 287 285 285 285 287 291 293 296 298 300 301
232 218 161 141 133 129 125 118 103 76 46 22 10 1 354 349 346 344 344 344 343 345 346 347 348 347 348 348 347 347 346 345 344 343 343 343 344 346 346 345 345 345 344 342 340 339 338 338 337 336 333 331 330 326 324 322 321 322 323 321 321 318 316 318 318 318 319 321 322 323 322 322 324 320 314 305 293 284 283 285 288 292 295 296 297 299 300 302
195 156 144 137 132 132 127 120 103 62 31 11 4 358 351 348 347 346 345 345 347 348 350 350 350 351 351 351 352 352 352 353 353 353 354 354 354 354 351 350 349 348 348 346 344 341 340 340 340 338 336 334 332 330 328 326 326 327 326 323 323 319 317 318 319 319 320 322 327 328 326 324 322 322 315 299 287 284 285 289 295 298 300 300 300 301 302 303
160 146 140 135 132 132 125 112 76 37 14 5 1 354 349 348 348 347 347 348 351 353 354 353 353 354 354 355 357 358 358 359 360 0 1 1 359 357 355 353 351 350 350 349 347 344 341 340 340 339 337 334 332 331 329 329 330 331 328 325 324 320 318 318 319 320 320 325 332 332 333 330 323 321 307 291 287 287 290 296 299 301 301 301 303 304 306 307
151 144 139 134 130 128 113 86 46 19 5 2 357 350 348 349 349 349 351 353 355 357 357 356 357 358 358 359 0 1 2 2 4 4 4 4 1 359 357 354 353 352 351 351 349 347 342 339 340 340 337 334 335 334 332 331 333 333 330 328 325 322 320 319 319 320 321 326 335 338 340 333 319 309 290 285 291 294 296 300 301 302 303 304 307 309 310 310
150 145 137 129 123 116 94 59 24 4 359 358 353 348 349 350 351 353 356 358 359 360 0 1 2 1 1 3 2 3 4 4 6 5 5 4 2 0 359 356 355 353 352 352 350 349 346 342 341 342 339 337 338 337 336 335 334 334 332 330 327 323 323 321 320 322 321 323 331 338 342 331 312 304 293 291 298 300 301 303 305 308 310 311 312 313 313 314
151 144 133 125 123 116 77 33 4 356 354 353 349 348 351 352 354 357 0 3 2 3 4 5 6 6 6 7 7 7 8 7 7 7 6 5 3 3 1 359 358 355 355 354 352 351 349 345 343 342 341 339 339 339 338 336 336 336 334 332 328 325 325 323 321 323 322 320 325 333 340 335 314 305 306 308 310 310 309 311 314 317 317 314 313 313 315 316
151 141 135 134 142 123 36 2 354 353 348 347 347 349 354 355 358 2 4 5 6 7 8 9 10 10 10 10 10 10 9 9 8 8 8 6 4 3 2 1 359 357 356 355 354 352 349 348 346 343 343 340 338 338 337 335 335 335 334 332 328 325 325 323 321 322 321 319 322 327 335 340 319 305 310 312 314 315 313 314 316 319 318 315 313 313 314 314
155 151 150 146 143 40 2 352 351 348 343 344 347 352 357 359 3 6 6 7 8 10 11 11 12 12 11 11 11 10 10 10 9 9 8 7 6 4 3 3 1 359 358 356 355 353 349 349 346 344 344 340 338 337 335 335 334 333 334 331 327 325 323 321 320 321 319 317 319 322 331 344 331 312 316 316 316 317 314 314 318 319 318 315 314 314 313 313
167 167 162 154 141 11 2 353 347 342 341 344 349 355 1 4 6 7 7 8 10 9 10 11 11 11 10 9 9 9 9 9 8 7 7 5 5 4 3 3 1 0 359 357 356 355 352 350 347 345 344 340 339 337 335 335 333 333 333 330 327 325 322 320 318 319 316 314 317 319 326 345 347 323 322 319 318 318 314 316 320 319 318 316 315 314 314 313
171 172 170 171 165 11 5 352 342 337 339 345 353 360 3 5 6 6 6 8 9 9 9 9 9 8 7 7 6 6 6 5 4 4 3 2 1 360 359 359 359 358 357 355 354 354 352 351 349 347 344 340 338 335 334 334 332 333 332 329 328 325 323 320 316 317 314 311 315 315 319 342 355 328 322 320 317 316 315 317 320 318 317 316 315 315 314 313
166 178 184 194 342 6 357 342 336 334 339 351 357 1 3 5 5 4 5 6 7 8 6 6 5 3 3 2 1 1 0 360 359 358 357 357 355 355 354 354 354 353 352 351 350 350 350 349 348 348 346 342 338 335 333 331 330 332 331 330 328 325 323 319 315 316 311 310 316 312 311 336 351 329 322 320 316 314 315 317 317 316 316 315 315 316 316 315
170 183 179 332 346 348 338 334 333 333 343 356 358 360 3 4 3 3 3 3 5 5 2 1 0 359 358 357 356 355 354 354 353 352 352 351 350 350 349 349 348 348 348 347 346 346 346 345 343 344 345 343 339 336 333 330 330 330 329 328 327 325 323 317 314 313 309 312 316 307 308 330 339 327 325 321 314 313 314 315 316 316 316 316 315 316 316 315
201 197 168 358 341 328 319 328 332 333 346 356 356 359 2 1 1 1 1 0 360 360 358 356 355 354 353 352 351 350 348 348 348 348 347 346 345 345 345 344 344 343 343 343 342 342 342 342 340 340 342 342 339 337 333 331 330 330 328 327 325 324 321 316 314 312 309 312 309 303 312 326 328 326 326 318 312 313 315 316 317 317 317 315 314 314 314 313
227 215 23 346 328 312 309 324 327 328 342 351 353 358 359 359 359 358 356 355 354 354 352 351 350 349 348 348 347 346 344 343 343 344 343 342 341 341 341 340 339 339 339 338 338 338 338 339 337 337 339 339 338 336 333 331 331 330 328 326 324 322 318 315 314 312 310 309 304 307 317 320 321 327 325 315 312 313 315 316 316 316 316 314 313 313 312 312
241 235 339 322 314 304 305 318 320 321 339 348 350 353 356 356 356 353 351 350 349 348 347 346 345 344 344 343 342 342 341 339 338 339 339 338 337 337 338 337 336 336 336 335 334 334 334 336 334 333 336 336 335 333 330 330 331 330 328 326 324 319 315 314 314 312 311 305 305 315 319 314 320 329 321 312 312 313 315 316 317 317 315 313 312 312 311 312
251 268 316 314 308 301 304 311 312 318 333 342 344 347 349 349 348 346 345 344 344 343 342 342 341 340 339 338 337 337 337 335 335 335 335 335 334 333 334 334 333 333 332 331 331 330 330 332 331 330 333 333 331 330 328 328 330 329 329 327 323 317 315 315 313 312 310 304 308 319 316 310 321 327 315 312 314 314 315 317 318 318 316 313 313 312 312 313
266 296 313 310 304 299 299 301 304 314 325 334 337 338 339 340 338 338 339 339 339 338 337 337 336 335 335 334 332 332 332 331 331 331 331 331 330 329 330 331 330 330 329 329 328 326 327 329 328 327 330 332 329 327 327 327 328 329 330 328 322 317 316 313 311 312 309 305 310 317 311 312 322 320 313 314 315 314 316 317 319 319 316 314 313 312 313 313
286 304 308 306 301 296 296 296 299 309 317 325 328 328 329 331 331 332 333 334 334 333 333 334 332 330 330 329 328 328 327 327 327 327 327 328 326 325 327 327 327 327 327 326 325 324 324 325 325 324 326 329 327 324 325 324 325 328 331 328 322 318 315 312 311 311 308 307 311 312 309 315 320 314 312 316 315 315 316 317 319 319 316 314 312 312 313 313
295 305 307 306 301 296 294 295 300 307 313 317 320 320 322 325 326 327 328 329 329 328 329 329 328 327 326 325 324 324 324 324 324 324 324 324 324 323 323 325 325 324 324 324 323 322 321 322 323 321 323 327 326 322 322 322 322 328 332 329 324 319 315 312 311 311 309 310 311 310 310 316 317 312 313 316 315 315 316 317 319 319 315 312 312 313 313 312
290 298 302 304 301 297 294 294 300 307 309 311 314 316 317 320 322 324 325 325 325 324 324 324 324 323 323 322 321 321 321 321 321 320 321 321 321 321 321 322 322 321 322 321 320 320 319 319 320 319 320 324 324 321 321 320 321 327 331 330 325 319 315 313 312 312 311 311 311 310 311 315 314 312 314 315 314 314 315 317 319 318 314 312 312 314 313 312
286 289 292 298 296 294 294 296 300 304 305 307 309 310 314 317 317 319 321 322 321 320 320 320 320 320 320 319 318 318 318 318 318 318 318 319 319 319 319 320 320 319 319 319 318 318 317 317 317 316 317 321 322 320 319 319 321 327 330 329 325 320 316 314 313 313 313 312 311 310 312 314 313 313 313 314 314 314 315 317 318 316 313 312 313 314 313 313